TimeCST,TemperatureF,Dew PointF,Humidity,Sea Level PressureIn,VisibilityMPH,Wind Direction,Wind SpeedMPH,Gust SpeedMPH,PrecipitationIn,Events,Conditions,WindDirDegrees,DateUTC
12:53 AM,59.0,41.0,51,30.16,10.0,North,11.5,-,N/A,,Clear,10,2012-11-27 06:53:00
1:53 AM,57.9,41.0,53,30.19,10.0,West,6.9,-,N/A,,Clear,280,2012-11-27 07:53:00
2:53 AM,55.9,39.9,55,30.24,10.0,WNW,9.2,-,N/A,,Clear,300,2012-11-27 08:53:00
3:53 AM,54.0,35.1,49,30.26,10.0,NW,11.5,-,N/A,,Clear,320,2012-11-27 09:53:00
4:53 AM,52.0,34.0,50,30.28,10.0,NW,6.9,-,N/A,,Clear,320,2012-11-27 10:53:00
5:53 AM,51.1,32.0,48,30.32,10.0,NW,8.1,18.4,N/A,,Clear,310,2012-11-27 11:53:00
6:53 AM,48.9,32.0,52,30.36,10.0,NW,8.1,-,N/A,,Clear,310,2012-11-27 12:53:00
7:53 AM,48.0,30.9,52,30.38,10.0,WNW,13.8,-,N/A,,Clear,300,2012-11-27 13:53:00
8:53 AM,50.0,28.0,43,30.41,10.0,NW,12.7,20.7,N/A,,Clear,310,2012-11-27 14:53:00
9:53 AM,52.0,27.0,38,30.43,10.0,NW,15.0,25.3,N/A,,Clear,320,2012-11-27 15:53:00
10:53 AM,55.0,28.0,35,30.41,10.0,NNW,12.7,-,N/A,,Clear,330,2012-11-27 16:53:00
11:53 AM,57.9,28.0,32,30.39,10.0,NW,11.5,20.7,N/A,,Clear,320,2012-11-27 17:53:00
12:53 PM,61.0,30.0,31,30.36,10.0,NW,13.8,20.7,N/A,,Clear,310,2012-11-27 18:53:00
1:53 PM,62.6,30.2,30,30.33,10.0,NNW,9.2,-,N/A,,Clear,330,2012-11-27 19:53:00
2:53 PM,66.0,32.0,28,30.30,10.0,NNW,8.1,-,N/A,,Clear,330,2012-11-27 20:53:00
3:53 PM,66.0,32.0,28,30.28,10.0,NNW,6.9,-,N/A,,Clear,340,2012-11-27 21:53:00
4:53 PM,64.0,33.1,31,30.27,10.0,NW,5.8,-,N/A,,Clear,310,2012-11-27 22:53:00
5:53 PM,60.1,34.0,38,30.28,10.0,West,4.6,-,N/A,,Clear,260,2012-11-27 23:53:00
6:53 PM,57.0,35.1,44,30.29,10.0,West,3.5,-,N/A,,Clear,280,2012-11-28 00:53:00
7:53 PM,55.0,34.0,45,30.30,10.0,Calm,Calm,-,N/A,,Clear,0,2012-11-28 01:53:00
8:53 PM,53.1,34.0,48,30.30,10.0,NW,3.5,-,N/A,,Clear,310,2012-11-28 02:53:00
9:53 PM,52.0,34.0,50,30.30,10.0,Calm,Calm,-,N/A,,Clear,0,2012-11-28 03:53:00
10:53 PM,48.0,34.0,58,30.31,10.0,Calm,Calm,-,N/A,,Clear,0,2012-11-28 04:53:00
11:53 PM,46.9,35.1,63,30.31,10.0,Calm,Calm,-,N/A,,Clear,0,2012-11-28 05:53:00